Location: Unspecified
(42.3650°N, 71.1030°W)
Time: 16:01:49
(UTC+00:00)

Transit 2A - Pass Details

Date: 27 June 2024
Orbit: 591 x 960 km, 66.7° (Epoch: 16 July)

Event Time Altitude Azimuth Distance (km) Brightness Sun altitude
Rises 04:24:55 0° 322° (NW) 3,577 10.4 -24.1°
Reaches altitude 10° 04:27:33 10° 315° (NW) 2,661 9.4 -24.2°
Maximum altitude 04:33:19 40° 249° (WSW) 1,390 7.1 -24.3°
Enters shadow 04:34:13 38° 229° (SW) 1,435 7.1 -24.3°
